Dewpoint
54 54 54 54 52 52 52 52 51 52 51 52 52 53 54 56 57 54 51 53 53 54 53 49 48 42 43 44 43 43 39 36 35 33 33 34 33 34 33 30 25 25 25 25 28
54 54 53 52 52 52 52 52 51 52 52 51 52 53 55 56 53 51 54 53 52 52 48 46 44 41 43 43 42 41 37 36 34 34 34 34 34 34 32 29 24 24 26 28 31
54 54 54 54 52 53 53 52 52 52 53 52 53 54 55 55 50 49 53 51 50 49 45 45 41 41 41 42 41 40 37 36 36 36 34 34 33 31 32 31 27 23 26 28 30
56 54 54 54 53 53 53 52 52 52 54 52 55 55 55 52 40 45 48 47 46 47 43 41 40 39 39 39 41 38 38 37 36 36 34 32 32 31 30 24 24 24 26 27 29
55 55 53 54 53 53 53 51 52 52 54 55 56 55 52 47 44 44 44 45 41 39 36 40 39 38 38 38 39 38 37 34 36 35 34 33 31 30 29 27 25 23 25 26 25
54 55 54 54 53 53 53 52 51 51 54 54 55 55 49 43 41 39 33 35 36 36 34 37 37 37 35 34 36 32 33 34 33 34 33 30 29 30 27 26 20 19 22 24 23
54 54 55 54 53 53 53 52 50 50 53 54 54 52 48 46 38 34 31 33 35 33 31 34 33 35 32 31 31 28 29 26 31 31 29 25 21 22 27 23 22 18 13 18 23
54 54 54 54 53 53 53 52 50 50 52 53 53 50 45 41 39 35 31 31 31 31 32 33 33 30 27 28 26 25 24 18 21 28 21 17 9 17 22 23 22 20 13 19 23
55 55 54 53 53 53 52 51 50 50 52 53 49 46 39 40 38 36 32 29 29 30 30 31 30 26 26 21 20 20 16 16 20 26 17 14 11 15 20 19 22 21 15 22 23
56 56 54 53 53 53 51 49 49 49 50 50 47 40 39 35 36 33 32 30 29 29 28 27 28 23 22 19 13 17 16 14 19 21 17 15 15 16 16 18 18 21 17 19 22
55 55 55 53 53 52 48 44 40 41 43 39 39 37 36 31 30 30 31 28 27 28 26 27 24 19 21 18 21 15 13 11 12 18 18 17 17 16 16 14 16 16 19 13 15
53 54 54 53 53 52 48 40 37 37 31 35 39 38 32 30 27 28 29 26 26 24 25 23 20 21 22 23 17 14 12 11 12 13 12 11 10 12 14 13 15 15 14 14 11
50 52 54 53 53 48 45 40 40 39 30 29 29 36 32 27 24 24 28 26 25 24 23 19 17 19 20 17 16 14 12 13 12 12 12 11 10 12 13 13 13 12 12 11 17
49 49 52 54 48 45 41 40 40 40 21 23 25 30 29 28 25 25 27 25 23 22 21 19 18 17 17 16 16 13 12 12 11 10 8 11 7 11 9 12 14 14 13 11 23
48 48 49 52 45 39 39 40 42 41 17 23 27 27 28 25 23 24 25 21 18 16 15 15 16 16 14 14 15 13 14 12 12 11 10 10 8 9 9 10 14 14 18 20 21
48 47 49 49 49 45 40 41 41 28 18 22 23 22 25 24 22 22 21 22 20 17 16 15 16 16 15 15 15 15 12 12 12 11 6 9 8 7 7 10 14 13 19 18 17
46 46 47 49 44 44 43 41 28 22 23 20 21 22 24 22 22 21 20 19 17 14 14 16 14 15 15 14 15 13 13 12 15 12 6 10 6 8 8 10 14 15 18 15 14
47 46 47 48 47 46 43 33 22 27 24 22 21 21 21 20 21 21 20 18 20 20 17 15 14 14 15 15 13 13 14 20 8 21 18 4 5 4 6 11 16 18 17 14 13
46 44 44 47 47 44 38 26 23 28 23 20 20 19 19 19 21 21 20 20 20 20 19 16 13 14 15 14 15 13 12 15 12 12 8 9 8 8 6 12 17 17 15 13 13
42 41 40 48 48 42 34 29 28 29 26 29 18 20 19 18 21 21 21 22 22 21 26 22 13 14 13 14 13 13 14 9 15 8 9 14 9 7 7 7 14 16 14 13 13
41 36 40 47 46 38 28 30 30 29 26 28 24 21 20 19 21 21 21 22 23 24 25 24 15 14 13 12 12 12 11 17 17 20 12 10 9 8 7 8 8 13 13 12 13
39 30 43 46 34 33 29 30 30 30 29 28 27 27 23 21 22 22 23 26 23 24 22 25 16 13 13 16 16 14 13 18 13 13 16 15 11 10 10 8 7 9 11 11 12
32 34 43 43 28 29 32 32 31 31 33 32 27 29 28 23 21 24 26 25 23 22 22 27 18 14 15 17 17 15 19 19 20 18 12 7 8 11 10 10 9 8 9 9 11
33 28 33 33 32 32 29 31 31 36 34 33 30 29 27 27 27 26 22 22 22 25 26 25 24 16 11 15 15 13 16 21 16 15 15 14 12 9 9 9 10 10 11 12 13
33 30 31 26 28 30 32 31 31 31 35 33 29 30 29 22 25 25 23 22 23 25 25 18 18 23 19 23 19 17 15 19 16 14 10 12 14 11 10 10 11 12 13 14 14
32 31 33 31 30 29 31 31 28 29 31 29 28 30 31 30 26 24 24 22 21 23 23 27 21 21 20 21 19 17 20 18 19 17 16 16 16 18 16 16 13 13 14 14 15
37 38 34 31 31 30 28 31 32 35 33 31 30 31 31 32 33 28 26 25 24 21 22 22 22 20 18 19 18 17 18 20 18 18 16 14 15 17 16 15 16 16 17 16 16
Wind_Speed
12 14 15 15 15 14 13 13 14 14 13 11 9 10 10 9 9 3 4 4 1 3 4 6 6 8 6 3 2 2 3 4 5 4 3 5 4 4 2 9 7 3 6 17 20
12 12 12 15 16 16 15 13 13 13 14 12 11 8 8 7 4 8 2 2 2 1 1 4 6 9 3 4 3 4 4 5 1 4 2 3 5 6 5 10 8 17 14 17 18
14 14 13 13 15 16 17 16 13 12 12 13 12 8 6 6 3 4 4 3 1 1 4 11 5 10 7 5 6 6 5 3 3 5 7 2 3 3 7 3 13 20 20 17 15
13 13 13 13 14 14 16 17 15 12 10 11 12 9 7 2 3 5 7 4 2 5 6 3 2 6 7 8 9 5 11 8 5 4 3 2 2 3 5 4 3 25 26 20 17
11 13 12 12 14 15 15 16 15 13 8 9 12 10 5 3 5 9 8 5 3 3 7 5 6 5 5 7 6 7 7 3 10 6 0 3 1 2 2 4 18 20 19 19 17
10 12 11 11 13 15 16 16 14 13 10 6 10 12 4 6 9 11 4 4 2 4 5 3 2 6 4 1 9 2 1 2 5 6 3 4 5 2 7 9 22 20 17 16 18
12 12 10 9 12 14 17 18 15 11 10 8 5 7 7 12 11 10 6 3 1 2 2 1 4 2 2 1 0 5 3 7 6 8 4 5 8 15 18 13 20 18 13 12 19
14 13 11 10 11 13 17 20 17 11 8 9 6 2 8 1 8 7 9 4 2 0 2 3 3 2 4 1 3 3 2 3 7 13 5 7 9 7 15 16 20 18 15 13 15
14 13 12 11 10 12 15 21 18 9 7 6 5 4 8 2 7 10 9 8 6 4 1 0 0 2 3 4 2 4 4 9 2 16 8 7 5 9 13 16 20 20 19 18 17
14 14 13 11 11 11 15 23 9 2 4 6 11 7 7 7 7 8 4 12 5 9 3 2 2 4 3 7 9 6 6 6 10 14 10 11 15 10 3 15 17 20 20 22 22
16 16 13 11 9 9 9 7 3 2 5 11 9 7 8 5 4 8 6 6 4 5 7 6 6 14 18 20 4 3 3 4 3 4 10 17 19 18 17 17 18 14 22 25 24
16 17 16 11 9 7 4 3 3 3 9 18 27 21 4 10 5 10 13 9 8 10 11 4 13 15 11 19 9 3 3 4 4 5 4 9 21 20 20 22 24 24 20 22 14
17 16 17 11 5 4 9 9 2 2 5 9 19 17 13 13 9 19 21 9 9 13 14 10 3 10 7 8 8 6 6 3 2 2 8 8 13 7 9 8 15 10 11 12 24
17 15 17 7 2 7 6 6 3 3 5 9 9 9 15 10 7 16 21 8 9 17 11 14 9 10 9 6 8 7 3 6 3 2 4 4 8 5 6 11 9 7 6 19 23
18 15 14 15 4 5 8 7 3 4 5 5 7 3 14 13 11 9 9 2 12 10 7 9 13 13 8 5 10 4 5 6 3 1 3 3 5 7 8 7 9 10 14 23 24
17 15 14 10 9 2 11 8 4 6 12 7 7 8 18 14 5 6 6 4 2 4 6 5 3 5 5 9 8 12 6 4 3 2 3 6 8 6 9 13 13 10 17 19 18
19 16 14 8 10 15 12 7 4 9 6 8 8 13 20 14 8 9 14 12 11 10 9 4 4 3 10 8 3 4 6 2 1 2 5 2 5 11 16 12 22 22 20 21 21
21 16 12 13 12 18 9 5 12 10 11 3 8 17 17 15 9 13 17 17 17 7 15 14 8 13 8 5 7 11 6 6 6 6 2 1 8 3 1 7 19 22 24 21 19
13 9 9 9 18 18 14 14 14 9 9 5 12 15 13 16 8 14 18 14 16 20 9 10 5 3 6 2 6 7 8 2 4 3 1 5 4 3 2 8 20 24 23 23 20
6 7 16 19 18 22 18 16 15 16 5 14 17 15 19 21 14 17 21 15 10 24 8 6 8 3 2 3 3 2 7 4 1 6 6 4 5 4 10 12 19 22 24 21 20
5 8 6 25 17 8 20 13 11 15 8 7 13 9 11 12 17 14 15 3 18 13 11 7 7 3 5 9 13 6 5 2 4 3 6 3 5 4 15 18 17 16 19 19 19
5 9 10 20 21 7 16 10 8 5 22 7 7 6 9 18 15 14 11 7 8 16 15 4 7 7 6 0 2 4 7 8 6 7 2 2 5 1 9 18 17 16 17 18 19
5 6 5 5 19 19 3 14 9 10 6 13 9 7 5 8 9 13 8 5 15 9 20 13 6 9 2 3 2 7 7 6 8 4 9 8 4 6 8 12 19 20 16 15 13
4 7 4 2 1 12 15 11 17 12 6 10 10 7 8 0 2 11 6 2 4 6 6 5 5 6 14 5 7 9 14 16 9 8 7 11 6 10 13 12 10 12 13 12 8
6 6 6 8 19 9 4 7 13 9 17 13 7 15 11 5 4 6 6 6 5 6 4 4 6 5 5 9 5 6 15 22 24 14 14 8 22 19 20 17 16 16 10 7 9
6 4 3 2 3 20 14 20 23 21 15 13 17 22 19 8 10 10 11 8 8 6 6 1 4 4 4 8 4 5 8 21 20 14 19 12 16 8 12 9 12 14 13 12 7
7 5 4 3 3 13 12 6 20 13 12 12 19 8 18 22 15 13 11 14 15 17 10 11 9 6 6 7 3 10 25 24 16 12 19 23 16 10 10 15 16 13 10 9 5
Wind_Direction
349 353 351 349 345 344 340 339 335 329 323 314 309 307 316 328 313 239 216 145 121 316 319 296 289 233 251 244 150 82 214 234 253 3 162 157 142 57 88 96 56 64 132 152 152
340 342 349 345 343 339 337 337 336 329 321 309 304 301 310 325 291 273 165 187 179 303 205 233 233 207 197 193 167 164 197 213 73 55 334 138 99 142 136 122 90 98 105 138 146
327 332 332 342 341 338 335 332 331 331 322 310 302 291 303 327 296 200 186 226 233 301 261 266 265 178 213 172 178 197 197 194 75 71 35 139 110 111 130 174 172 161 153 155 157
311 322 325 330 335 336 333 332 324 324 324 312 314 307 303 200 238 186 192 206 284 297 321 275 288 167 202 209 200 216 228 249 144 73 45 47 2 111 153 101 259 164 157 161 171
312 311 321 320 325 330 330 330 322 318 314 317 317 313 311 244 225 191 189 206 242 275 258 250 222 212 200 203 205 199 256 173 124 112 229 326 274 239 230 115 117 139 150 158 156
302 301 307 309 315 321 324 325 320 316 301 305 317 321 283 253 145 155 168 192 236 223 256 250 242 264 245 267 181 96 16 231 171 158 210 219 248 253 233 153 132 142 156 165 144
293 295 291 294 305 313 318 319 316 310 295 291 318 310 278 258 151 148 162 119 132 313 262 138 6 73 336 108 163 83 314 305 221 179 229 153 259 230 220 155 151 153 165 158 153
280 286 288 288 293 305 314 313 307 299 281 281 300 344 261 279 153 162 140 141 236 332 71 49 351 34 69 126 56 133 147 229 275 171 175 122 268 267 212 177 165 165 176 173 158
278 278 280 285 281 297 309 310 301 277 256 268 289 176 261 255 184 194 174 160 149 113 128 233 25 148 105 143 135 212 216 211 197 180 154 183 273 322 177 178 179 177 182 173 164
278 273 267 277 280 296 312 309 264 288 238 255 260 285 206 229 186 165 151 144 152 142 125 181 148 158 173 169 205 187 224 241 193 200 175 199 244 257 226 183 196 195 187 181 185
302 277 263 264 262 289 332 340 253 246 225 203 204 224 149 98 100 170 159 143 143 160 189 205 173 204 203 205 191 133 225 283 98 181 186 226 251 243 244 211 204 203 194 198 200
322 312 268 257 259 289 314 255 255 169 286 243 245 236 174 152 169 199 163 157 178 188 210 172 229 227 215 216 196 157 232 251 76 137 206 258 262 253 238 213 202 204 203 208 175
318 326 309 246 254 284 228 243 186 118 261 259 226 220 212 167 192 199 174 190 186 201 197 182 220 171 151 150 166 194 207 214 149 221 245 279 289 278 214 172 187 185 207 184 159
289 303 319 227 192 221 228 147 156 86 271 262 218 219 167 141 228 180 183 167 204 207 204 214 183 165 165 187 170 188 139 129 86 38 241 152 288 304 168 136 156 182 196 162 149
283 284 294 207 210 198 144 132 162 63 252 237 148 346 149 169 140 168 175 184 188 190 174 188 165 167 178 197 175 184 124 111 103 147 333 249 227 270 151 186 187 185 164 147 149
272 278 284 292 220 204 134 114 45 179 231 201 147 157 159 195 179 107 142 102 184 176 88 146 137 160 147 74 111 137 110 74 70 93 259 227 187 265 195 210 191 176 169 153 153
269 269 272 258 235 168 129 99 199 204 254 195 186 174 184 192 144 154 170 176 178 154 171 128 167 109 135 112 94 139 127 124 154 223 235 173 184 256 229 205 178 175 165 150 147
283 273 265 249 168 147 110 120 226 254 220 167 159 163 179 175 190 175 168 196 233 224 146 165 191 170 184 187 178 175 183 196 201 189 192 149 235 239 113 170 172 167 162 158 161
265 278 256 241 173 157 166 215 203 205 221 216 127 157 206 197 176 172 183 200 212 205 169 148 152 85 97 68 138 173 202 164 111 57 170 224 256 273 46 99 159 163 161 169 173
241 260 245 171 168 166 187 225 209 216 261 325 212 182 194 191 200 182 187 208 203 196 208 157 119 183 123 97 90 150 154 145 81 188 222 255 233 236 193 168 169 170 176 181 179
231 237 238 160 164 224 201 215 204 229 237 175 258 226 208 186 192 189 198 226 194 179 153 124 109 139 125 206 181 152 183 117 124 155 184 209 232 263 203 193 181 181 185 184 190
230 218 167 153 201 189 224 221 224 224 221 230 290 231 234 179 177 185 211 251 158 145 162 138 113 145 197 144 153 194 183 167 175 202 162 133 262 167 169 192 183 185 187 194 200
213 173 164 210 216 203 208 218 233 201 200 187 225 241 323 167 174 175 178 326 149 132 159 174 146 125 71 330 309 210 191 161 115 114 186 171 237 199 165 159 188 191 202 207 205
261 169 192 163 341 197 202 214 215 217 211 183 213 286 312 111 33 160 126 100 135 85 133 138 145 170 183 174 145 192 185 174 164 189 179 218 183 205 199 188 180 183 185 190 188
223 212 155 203 232 227 245 205 202 207 192 203 197 195 240 231 163 129 120 118 77 136 90 152 182 143 106 137 128 162 188 184 202 197 199 233 224 203 198 202 203 215 218 173 154
195 168 133 329 232 195 224 215 208 206 182 199 214 209 208 244 256 185 156 179 177 172 145 87 147 122 162 165 175 237 222 207 216 226 244 252 261 218 190 183 155 158 159 163 163
202 105 102 156 214 169 212 233 207 189 228 228 202 137 210 220 247 288 193 169 169 161 156 160 148 144 180 124 76 282 236 204 207 210 211 225 231 144 160 178 177 176 170 167 145